Regional Weather Roundup
Issued by NWS Northern Indiana

Home | Current Version | Previous Version | Text Only | Print | Product List | Glossary Off
Versions: 1 2 3 4 5 6 7 8 9 10 11 12 13 14 15 16 17 18 19 20 21 22 23 24 25 26 27 28 29 30 31 32 33 34 35 36 37 38 39 40 41 42 43 44 45 46 47 48 49 50

000
ASUS43 KIWX 200300
RWRIWX

KIWX WEATHER ROUNDUP
NATIONAL WEATHER SERVICE NORTHERN INDIANA
1000 PM EST SUN FEB 19 2017

NOTE: "FAIR" INDICATES FEW OR NO CLOUDS BELOW 12,000 FEET WITH NO
SIGNIFICANT WEATHER AND/OR OBSTRUCTIONS TO VISIBILITY.

* THESE STATIONS ARE NOT UNDER NWS QUALITY CONTROL. THEY ALSO MAY NOT
  REPORT WEATHER SUCH AS PRECIPITATION OR FOG.

INZ001>027-200400-
NORTHERN INDIANA

CITY           SKY/WX    TMP DP  RH WIND       PRES   REMARKS
GARY*          PTCLDY    37  32  81 CALM      30.10R
KNOX*          CLOUDY    39  18  41 CALM      30.12R
SOUTH BEND     CLOUDY    40  26  57 NE3       30.13R
GOSHEN         CLOUDY    43  31  62 CALM      30.13R
MONTICELLO*    CLEAR     45  41  86 CALM      30.11R
WARSAW*        CLOUDY    41  32  70 CALM      30.13R
ANGOLA*        CLEAR     39  34  81 CALM      30.12R
FORT WAYNE     CLOUDY    43  34  70 SW3       30.13R
PERU/GRISSOM   CLEAR     45  44  96 SE3       30.11R FOG

$$
INZ028>050-200400-
CENTRAL INDIANA

CITY           SKY/WX    TMP DP  RH WIND       PRES   REMARKS
LAFAYETTE      CLEAR     43  38  82 VRB6      30.11R
KOKOMO*        PTCLDY    43  41  93 SE7       30.13R
MUNCIE*        CLEAR     51  43  74 S5        30.14R
INDIANAPOLIS   PTCLDY    50  45  83 SE7       30.13R

$$
MIZ043>046-050>051-056>058-064>065-071>073-077>080-200400-
SOUTHWEST LOWER MICHIGAN

CITY           SKY/WX    TMP DP  RH WIND       PRES   REMARKS
BATTLE CREEK   CLEAR     41  29  62 CALM      30.14R
BENTON HARBOR  CLOUDY    38  29  70 CALM      30.12R
COLDWATER*     CLOUDY    42  28  58 CALM      30.13R
HILLSDALE*     PTCLDY    41  30  65 CALM      30.12R
HOLLAND        CLOUDY    37  31  78 E3        30.14R
GRAND RAPIDS   PTCLDY    42  29  59 CALM      30.13R
KALAMAZOO      CLEAR     44  23  43 CALM      30.14R
STURGIS*       CLOUDY    44  28  52 N5        30.12R
THREE RIVERS*  FAIR      36  29  75 CALM      30.13R

$$
OHZ001>008-015>018-024>025-200400-
NORTHWEST OHIO

CITY           SKY/WX    TMP DP  RH WIND       PRES   REMARKS
DEFIANCE       CLEAR     41  31  67 CALM      30.13R
FINDLAY        CLEAR     47  33  58 SW3       30.12R
TOLEDO EXPRESS CLOUDY    45  32  60 CALM      30.12R
TOLEDO METCALF CLEAR     43  33  68 CALM      30.13R
LIMA           CLEAR     44  35  70 CALM      30.13R

$$
AND FOR LAKE MICHIGAN COASTAL AND OPEN LAKE BUOY OBSERVATIONS

STATION/POSITION TEMP    WIND        PRES    VSBY  WAVE
                 AIR SEA DIR/SP/G                  HT/PER
                 (F)     (DEG/KT/KT) (MB)    (MI)  (FT/S)
CALUMET HARBOR    41      70/  3/  4 1018.4R
MICHIGAN CITY     51     120/  3/  4   N/A
BURNS HARBOR      52      CALM  /  2 1020.0R

$$
&&




USA.gov is the U.S. government's official web portal to all federal, state and local government web resources and services.